Weather History for Superior, WI

Change the Weather History Date:

Saturday, June 29, 2013

  Actual Average Record
Temperature  
Mean Temperature 60 °F -  
Max Temperature 69 °F 71 °F 93 °F (1961)
Min Temperature 50 °F 52 °F 39 °F (2007)
Degree Days  
Heating Degree Days 5    
Growing Degree Days 10 (Base 50)    
Moisture  
Dew Point 54 °F    
Average Humidity 80    
Maximum Humidity 100    
Minimum Humidity 51    
Precipitation  
Precipitation 0.01 in - - ()
Sea Level Pressure  
Sea Level Pressure 29.91 in    
Wind  
Wind Speed 2 mph (NE)    
Max Wind Speed 14 mph    
Max Gust Speed 20 mph    
Visibility 8 miles    
Events Fog , Rain    
Averages and records for this station are not official NWS values.
T = Trace of Precipitation, MM = Missing Value Source: NWS Daily Summary

Daily Weather History Graph

Daily Weather History Graph

Search for Another Location

Airport:

Trip Planner

Search our weather history database for the weather conditions in past years. The results will help you decide how hot, cold, wet, or windy it might be!

Date:

Astronomy

Jun. 29, 2013 Rise Set
Actual Time 5:17 AM CDT 9:05 PM CDT
Civil Twilight 4:38 AM CDT 9:45 PM CDT
Nautical Twilight 3:45 AM CDT 10:38 PM CDT
Astronomical Twilight 2:28 AM CDT 11:54 PM CDT
Moon 12:08 AM CDT (6/29) 12:58 PM CDT (6/29)
Length of Visible Light 17h 06m
Length of Day
15h 48m
Waning Gibbous, 55% of the Moon is Illuminated
Jun 29
Waning Gibbous
Jun 29
Last Quarter
Jul 8
New
Jul 15
First Quarter
Jul 22
Full

Hourly Weather History & Observations

Time (CDT) Temp. Dew Point Humidity Pressure Visibility Wind Dir Wind Speed Gust Speed Precip Events Conditions
12:15 AM 54.7 °F 54.5 °F 99% 29.81 in 7.0 mi Calm Calm - N/A   Overcast
12:35 AM 54.9 °F 54.7 °F 99% 29.81 in 10.0 mi Calm Calm - N/A   Overcast
12:55 AM 55.2 °F 55.0 °F 99% 29.81 in 10.0 mi Calm Calm - N/A   Overcast
1:15 AM 55.4 °F 55.2 °F 99% 29.80 in 10.0 mi Calm Calm - N/A   Overcast
1:35 AM 55.6 °F 55.4 °F 99% 29.80 in 2.5 mi Calm Calm - N/A   Overcast
1:55 AM 55.6 °F 55.4 °F 99% 29.81 in 1.0 mi Calm Calm - N/A   Overcast
2:15 AM 55.6 °F 55.6 °F 100% 29.81 in 1.5 mi Calm Calm - N/A Rain Light Rain
2:35 AM 55.6 °F 55.6 °F 100% 29.81 in 4.0 mi Calm Calm - 0.01 in   Overcast
2:55 AM 55.8 °F 55.8 °F 100% 29.81 in 5.0 mi Calm Calm - 0.01 in   Overcast
3:15 AM 55.8 °F 55.8 °F 100% 29.81 in 5.0 mi Calm Calm - N/A   Overcast
3:35 AM 55.9 °F 55.8 °F 99% 29.81 in 7.0 mi Calm Calm - N/A   Overcast
3:55 AM 56.1 °F 55.9 °F 99% 29.81 in 7.0 mi Calm Calm - N/A   Overcast
4:15 AM 56.3 °F 55.9 °F 99% 29.81 in 7.0 mi Calm Calm - N/A   Overcast
4:35 AM 56.1 °F 55.9 °F 99% 29.81 in 5.0 mi Calm Calm - N/A   Overcast
4:55 AM 55.8 °F 55.6 °F 99% 29.82 in 5.0 mi Calm Calm - N/A   Mostly Cloudy
5:15 AM 55.4 °F 55.4 °F 100% 29.82 in 4.0 mi Calm Calm - N/A   Scattered Clouds
5:35 AM 55.0 °F 55.0 °F 100% 29.83 in 0.8 mi Calm Calm - N/A   Mostly Cloudy
5:55 AM 54.1 °F 54.1 °F 100% 29.83 in 0.2 mi Calm Calm - N/A Fog Fog
6:15 AM 54.9 °F 54.9 °F 100% 29.84 in 0.8 mi Calm Calm - N/A   Mostly Cloudy
6:35 AM 56.7 °F 56.7 °F 100% 29.84 in 4.0 mi Calm Calm - N/A   Scattered Clouds
6:55 AM 57.2 °F 57.2 °F 100% 29.85 in 5.0 mi Calm Calm - N/A   Scattered Clouds
7:15 AM 58.5 °F 58.3 °F 99% 29.85 in 5.0 mi Calm Calm - N/A   Mostly Cloudy
7:35 AM 59.4 °F 59.0 °F 99% 29.86 in 5.0 mi Calm Calm - N/A   Scattered Clouds
7:55 AM 60.6 °F 59.2 °F 95% 29.86 in 10.0 mi Calm Calm - N/A   Clear
8:15 AM 62.1 °F 59.5 °F 91% 29.86 in 10.0 mi Calm Calm - N/A   Clear
8:35 AM 63.3 °F 59.9 °F 89% 29.87 in 10.0 mi Calm Calm - N/A   Clear
8:55 AM 64.4 °F 60.8 °F 88% 29.88 in 10.0 mi Calm Calm - N/A   Scattered Clouds
9:15 AM 65.3 °F 59.7 °F 82% 29.88 in 10.0 mi NE 6.9 mph - N/A   Scattered Clouds
9:35 AM 65.5 °F 59.2 °F 80% 29.89 in 10.0 mi ENE 5.8 mph - N/A   Clear
9:55 AM 66.0 °F 58.5 °F 77% 29.89 in 10.0 mi NE 9.2 mph - N/A   Scattered Clouds
10:15 AM 66.6 °F 58.6 °F 76% 29.90 in 10.0 mi NE 10.4 mph 18.4 mph N/A   Scattered Clouds
10:35 AM 66.0 °F 57.6 °F 74% 29.91 in 10.0 mi ENE 9.2 mph 16.1 mph N/A   Clear
10:55 AM 66.0 °F 57.2 °F 73% 29.91 in 10.0 mi ENE 11.5 mph - N/A   Clear
11:15 AM 66.2 °F 56.7 °F 71% 29.91 in 10.0 mi ENE 10.4 mph 18.4 mph N/A   Clear
11:35 AM 66.4 °F 55.4 °F 68% 29.92 in 10.0 mi East 11.5 mph 17.3 mph N/A   Clear
11:55 AM 66.9 °F 54.7 °F 65% 29.92 in 10.0 mi East 13.8 mph - N/A   Clear
12:15 PM 68.0 °F 55.0 °F 63% 29.93 in 10.0 mi East 12.7 mph 16.1 mph N/A   Scattered Clouds
12:35 PM 66.9 °F 54.3 °F 64% 29.93 in 10.0 mi East 9.2 mph 16.1 mph N/A   Scattered Clouds
12:55 PM 66.7 °F 54.1 °F 64% 29.94 in 10.0 mi ENE 9.2 mph - N/A   Clear
1:15 PM 67.1 °F 53.6 °F 62% 29.94 in 10.0 mi ENE 11.5 mph 19.6 mph N/A   Scattered Clouds
1:35 PM 66.7 °F 53.4 °F 62% 29.94 in 10.0 mi ENE 11.5 mph 16.1 mph N/A   Scattered Clouds
1:55 PM 66.4 °F 52.2 °F 60% 29.95 in 10.0 mi ENE 11.5 mph - N/A   Clear
2:15 PM 66.9 °F 52.2 °F 59% 29.95 in 10.0 mi NE 9.2 mph - N/A   Scattered Clouds
2:35 PM 66.7 °F 50.5 °F 56% 29.95 in 10.0 mi ENE 8.1 mph - N/A   Clear
2:55 PM 67.3 °F 51.6 °F 57% 29.95 in 10.0 mi NE 4.6 mph - N/A   Scattered Clouds
3:15 PM 69.4 °F 51.4 °F 53% 29.95 in 10.0 mi ENE 8.1 mph - N/A   Scattered Clouds
3:35 PM 67.8 °F 49.8 °F 52% 29.96 in 10.0 mi NE 5.8 mph - N/A   Scattered Clouds
3:55 PM 69.1 °F 50.2 °F 51% 29.95 in 10.0 mi NE 4.6 mph - N/A   Clear
4:15 PM 69.1 °F 50.4 °F 51% 29.96 in 10.0 mi NE 4.6 mph - N/A   Clear
4:35 PM 68.5 °F 50.9 °F 53% 29.96 in 10.0 mi NNE 4.6 mph - N/A   Scattered Clouds
4:55 PM 67.8 °F 50.2 °F 53% 29.96 in 10.0 mi NE 4.6 mph - N/A   Scattered Clouds
5:15 PM 67.5 °F 50.7 °F 55% 29.96 in 10.0 mi NNE 4.6 mph - N/A   Clear
5:35 PM 68.0 °F 50.5 °F 54% 29.96 in 10.0 mi NNE 4.6 mph - N/A   Clear
5:55 PM 67.5 °F 50.2 °F 54% 29.96 in 10.0 mi NE 4.6 mph - N/A   Clear
6:15 PM 67.3 °F 49.8 °F 53% 29.96 in 10.0 mi ENE 5.8 mph - N/A   Clear
6:35 PM 67.1 °F 49.6 °F 53% 29.97 in 10.0 mi NE 5.8 mph - N/A   Clear
6:55 PM 65.3 °F 50.2 °F 58% 29.97 in 10.0 mi NNE 3.5 mph - N/A   Clear
7:15 PM 64.9 °F 51.3 °F 61% 29.98 in 10.0 mi Calm Calm - N/A   Clear
7:35 PM 64.6 °F 50.5 °F 60% 29.98 in 10.0 mi NNE 3.5 mph - N/A   Clear
7:55 PM 63.9 °F 50.4 °F 61% 29.98 in 10.0 mi NE 3.5 mph - N/A   Clear
8:15 PM 63.3 °F 50.4 °F 63% 29.98 in 10.0 mi Calm Calm - N/A   Clear
8:35 PM 59.9 °F 54.1 °F 81% 29.99 in 10.0 mi Calm Calm - N/A   Clear
8:55 PM 57.4 °F 53.1 °F 85% 29.99 in 10.0 mi Calm Calm - N/A   Clear
9:15 PM 54.9 °F 52.5 °F 92% 29.99 in 10.0 mi Calm Calm - N/A   Clear
9:35 PM 55.2 °F 51.8 °F 88% 29.99 in 10.0 mi Calm Calm - N/A   Scattered Clouds
9:55 PM 53.4 °F 51.8 °F 94% 29.99 in 10.0 mi Calm Calm - N/A   Scattered Clouds
10:15 PM 54.3 °F 52.5 °F 94% 29.99 in 10.0 mi Calm Calm - N/A   Scattered Clouds
10:35 PM 51.6 °F 50.5 °F 96% 29.99 in 10.0 mi Calm Calm - N/A   Scattered Clouds
10:55 PM 52.3 °F 50.9 °F 95% 29.99 in 10.0 mi Calm Calm - N/A   Clear
11:15 PM 51.3 °F 50.0 °F 95% 29.99 in 10.0 mi Calm Calm - N/A   Clear
11:35 PM 51.4 °F 50.2 °F 95% 30.00 in 10.0 mi Calm Calm - N/A   Clear
11:55 PM 50.9 °F 50.0 °F 97% 30.00 in 10.0 mi Calm Calm - N/A   Clear